| time (UTC) | temp C | wind direction | speed KPH | gust KPH | rain 1hr cm | rain 24hr cm | rain mn cm | humidity % | barometer mb |
| 20260507112359 | 10 | 241 | 1.6 | 0.0 | 0.00 | 0.00 | 0.00 | 93 | 1021.6 |
| 20260507111757 | 10 | 260 | 0.0 | 0.0 | 0.00 | 0.00 | 0.00 | 93 | 1021.7 |
| 20260507111357 | 10 | 303 | 1.6 | 0.0 | 0.00 | 0.00 | 0.00 | 92 | 1021.6 |
| 20260507110755 | 10 | 177 | 3.2 | 0.0 | 0.00 | 0.00 | 0.00 | 92 | 1021.8 |
| 20260507110354 | 10 | 266 | 1.6 | 0.0 | 0.00 | 0.00 | 0.00 | 92 | 1021.6 |
| 20260507105952 | 10 | 167 | 1.6 | 0.0 | 0.00 | 0.00 | 0.00 | 92 | 1021.7 |
| 20260507105752 | 10 | 208 | 1.6 | 0.0 | 0.00 | 0.00 | 0.00 | 92 | 1021.9 |
| 20260507105551 | 11 | 164 | 1.6 | 0.0 | 0.00 | 0.00 | 0.00 | 92 | 1021.7 |
| 20260507105151 | 11 | 169 | 1.6 | 0.0 | 0.00 | 0.00 | 0.00 | 92 | 1021.7 |
| 20260507104349 | 11 | 210 | 1.6 | 0.0 | 0.00 | 0.00 | 0.00 | 92 | 1021.7 |
| 20260507104158 | 11 | 177 | 1.6 | 0.0 | 0.00 | 0.00 | 0.00 | 92 | 1021.8 |
| 20260507104148 | 11 | 223 | 1.6 | 0.0 | 0.00 | 0.00 | 0.00 | 92 | 1021.7 |
| 20260507103747 | 11 | 213 | 0.0 | 0.0 | 0.00 | 0.00 | 0.00 | 92 | 1021.8 |
| 20260507102945 | 11 | 228 | 4.8 | 0.0 | 0.00 | 0.00 | 0.00 | 92 | 1021.9 |
| 20260507101942 | 11 | 174 | 3.2 | 0.0 | 0.00 | 0.00 | 0.00 | 92 | 1021.7 |
| 20260507101741 | 11 | 119 | 0.0 | 0.0 | 0.00 | 0.00 | 0.00 | 92 | 1021.8 |
| 20260507101541 | 11 | 153 | 1.6 | 0.0 | 0.00 | 0.00 | 0.00 | 92 | 1022.0 |
| 20260507101341 | 11 | 187 | 0.0 | 0.0 | 0.00 | 0.00 | 0.00 | 92 | 1021.8 |
| 20260507100538 | 11 | 160 | 0.0 | 0.0 | 0.00 | 0.00 | 0.00 | 92 | 1021.9 |
| 20260507100337 | 11 | 147 | 1.6 | 0.0 | 0.00 | 0.00 | 0.00 | 92 | 1021.8 |
| 20260507100137 | 11 | 184 | 1.6 | 0.0 | 0.00 | 0.00 | 0.00 | 92 | 1022.0 |
| 20260507095937 | 11 | 198 | 4.8 | 0.0 | 0.00 | 0.00 | 0.00 | 92 | 1022.0 |
| 20260507095746 | 11 | 200 | 3.2 | 0.0 | 0.00 | 0.00 | 0.00 | 92 | 1021.7 |
| 20260507095737 | 11 | 200 | 4.8 | 0.0 | 0.00 | 0.00 | 0.00 | 92 | 1021.6 |
| 20260507095135 | 11 | 128 | 0.0 | 0.0 | 0.00 | 0.00 | 0.00 | 93 | 1021.8 |
| 20260507094346 | 11 | 198 | 3.2 | 0.0 | 0.00 | 0.00 | 0.00 | 93 | 1021.7 |
| 20260507093932 | 11 | 201 | 0.0 | 0.0 | 0.00 | 0.00 | 0.00 | 92 | 1021.8 |
| 20260507093733 | 11 | 204 | 3.2 | 0.0 | 0.00 | 0.00 | 0.00 | 92 | 1021.9 |
| 20260507093131 | 11 | 205 | 1.6 | 0.0 | 0.00 | 0.00 | 0.00 | 92 | 1021.6 |
| 20260507092130 | 11 | 200 | 0.0 | 0.0 | 0.00 | 0.00 | 0.00 | 92 | 1021.9 |
| 20260507091527 | 11 | 192 | 1.6 | 0.0 | 0.00 | 0.00 | 0.00 | 93 | 1021.8 |
| 20260507090725 | 11 | 201 | 1.6 | 0.0 | 0.00 | 0.00 | 0.00 | 93 | 1021.9 |
| 20260507090525 | 11 | 175 | 1.6 | 0.0 | 0.00 | 0.00 | 0.00 | 93 | 1021.9 |
| 20260507090325 | 11 | 146 | 3.2 | 0.0 | 0.00 | 0.00 | 0.00 | 93 | 1021.7 |
| 20260507085924 | 11 | 198 | 3.2 | 0.0 | 0.00 | 0.00 | 0.00 | 93 | 1021.8 |
| 20260507083519 | 11 | 187 | 1.6 | 0.0 | 0.00 | 0.00 | 0.00 | 93 | 1021.8 |
| 20260507082717 | 11 | 214 | 0.0 | 0.0 | 0.00 | 0.00 | 0.00 | 94 | 1022.0 |
| 20260507082125 | 11 | 196 | 0.0 | 0.0 | 0.00 | 0.00 | 0.00 | 94 | 1021.8 |
| 20260507081928 | 11 | 186 | 1.6 | 0.0 | 0.00 | 0.00 | 0.00 | 94 | 1021.9 |
| 20260507081314 | 11 | 189 | 3.2 | 0.0 | 0.00 | 0.00 | 0.00 | 94 | 1021.9 |
| 20260507081127 | 11 | 217 | 1.6 | 0.0 | 0.00 | 0.00 | 0.00 | 94 | 1022.0 |
| 20260507081114 | 11 | 187 | 1.6 | 0.0 | 0.00 | 0.00 | 0.00 | 94 | 1021.8 |
| 20260507080923 | 11 | 197 | 3.2 | 0.0 | 0.00 | 0.00 | 0.00 | 94 | 1021.9 |
| 20260507075912 | 11 | 198 | 1.6 | 0.0 | 0.00 | 0.00 | 0.00 | 94 | 1021.7 |
| 20260507075712 | 11 | 216 | 1.6 | 0.0 | 0.00 | 0.00 | 0.00 | 94 | 1021.6 |
| 20260507075511 | 11 | 196 | 1.6 | 0.0 | 0.00 | 0.00 | 0.00 | 94 | 1021.4 |
| 20260507075310 | 11 | 207 | 1.6 | 0.0 | 0.00 | 0.00 | 0.00 | 94 | 1021.5 |
| 20260507075111 | 11 | 184 | 1.6 | 0.0 | 0.00 | 0.00 | 0.00 | 94 | 1021.8 |
| 20260507074910 | 11 | 164 | 1.6 | 0.0 | 0.00 | 0.00 | 0.00 | 94 | 1021.5 |
| 20260507074519 | 11 | 222 | 3.2 | 0.0 | 0.00 | 0.00 | 0.00 | 94 | 1021.6 |
| 20260507074508 | 11 | 184 | 8.0 | 0.0 | 0.00 | 0.00 | 0.00 | 94 | 1021.8 |
| 20260507073907 | 11 | 209 | 3.2 | 0.0 | 0.00 | 0.00 | 0.00 | 93 | 1021.6 |
| 20260507073708 | 11 | 202 | 3.2 | 0.0 | 0.00 | 0.00 | 0.00 | 93 | 1021.6 |
| 20260507073507 | 11 | 169 | 0.0 | 0.0 | 0.00 | 0.00 | 0.00 | 93 | 1021.6 |
| 20260507073107 | 11 | 179 | 3.2 | 0.0 | 0.00 | 0.00 | 0.00 | 93 | 1021.6 |
| 20260507072906 | 11 | 210 | 1.6 | 0.0 | 0.00 | 0.00 | 0.00 | 93 | 1021.6 |
| 20260507072706 | 11 | 185 | 1.6 | 0.0 | 0.00 | 0.00 | 0.00 | 93 | 1021.7 |
| 20260507071303 | 11 | 204 | 0.0 | 0.0 | 0.00 | 0.00 | 0.00 | 93 | 1021.7 |
| 20260507070902 | 11 | 200 | 0.0 | 0.0 | 0.00 | 0.00 | 0.00 | 93 | 1021.6 |
| 20260507070300 | 11 | 192 | 1.6 | 0.0 | 0.00 | 0.00 | 0.00 | 93 | 1021.7 |
| 20260507065658 | 11 | 187 | 0.0 | 0.0 | 0.00 | 0.00 | 0.00 | 93 | 1021.7 |
| 20260507065458 | 11 | 188 | 1.6 | 0.0 | 0.00 | 0.00 | 0.00 | 92 | 1021.7 |
| 20260507065311 | 11 | 218 | 1.6 | 0.0 | 0.00 | 0.00 | 0.00 | 92 | 1021.6 |
| 20260507064857 | 11 | 202 | 3.2 | 0.0 | 0.00 | 0.00 | 0.00 | 92 | 1021.6 |
| 20260507064708 | 11 | 202 | 1.6 | 0.0 | 0.00 | 0.00 | 0.00 | 92 | 1021.7 |
| 20260507064510 | 11 | 200 | 1.6 | 0.0 | 0.00 | 0.00 | 0.00 | 92 | 1021.6 |
| 20260507063856 | 11 | 225 | 1.6 | 0.0 | 0.00 | 0.00 | 0.00 | 92 | 1021.6 |
| 20260507063656 | 11 | 186 | 6.4 | 0.0 | 0.00 | 0.00 | 0.00 | 92 | 1021.6 |
| 20260507063455 | 11 | 221 | 4.8 | 0.0 | 0.00 | 0.00 | 0.00 | 91 | 1021.5 |
| 20260507063254 | 11 | 211 | 4.8 | 0.0 | 0.00 | 0.00 | 0.00 | 91 | 1021.6 |
| 20260507062853 | 12 | 192 | 1.6 | 0.0 | 0.00 | 0.00 | 0.00 | 91 | 1021.6 |
| 20260507062252 | 12 | 192 | 3.2 | 0.0 | 0.00 | 0.00 | 0.00 | 91 | 1021.6 |
| 20260507061851 | 12 | 190 | 1.6 | 0.0 | 0.00 | 0.00 | 0.00 | 91 | 1021.5 |
| 20260507061649 | 12 | 161 | 0.0 | 0.0 | 0.00 | 0.00 | 0.00 | 91 | 1021.6 |
| 20260507061448 | 12 | 167 | 3.2 | 0.0 | 0.00 | 0.00 | 0.00 | 91 | 1021.6 |
| 20260507061248 | 12 | 197 | 1.6 | 0.0 | 0.00 | 0.00 | 0.00 | 91 | 1021.8 |
| 20260507061048 | 12 | 196 | 3.2 | 0.0 | 0.00 | 0.00 | 0.00 | 91 | 1021.7 |
| 20260507060848 | 12 | 195 | 3.2 | 0.0 | 0.00 | 0.00 | 0.00 | 90 | 1021.6 |
| 20260507060648 | 12 | 194 | 4.8 | 0.0 | 0.00 | 0.00 | 0.00 | 90 | 1021.5 |
| 20260507060247 | 12 | 184 | 1.6 | 0.0 | 0.00 | 0.00 | 0.00 | 90 | 1021.7 |
| 20260507055846 | 12 | 203 | 3.2 | 0.0 | 0.00 | 0.00 | 0.00 | 90 | 1021.8 |
| 20260507055657 | 12 | 142 | 3.2 | 0.0 | 0.00 | 0.00 | 0.00 | 90 | 1021.8 |
| 20260507055645 | 12 | 191 | 4.8 | 0.0 | 0.00 | 0.00 | 0.00 | 90 | 1021.7 |
| 20260507055454 | 12 | 173 | 3.2 | 0.0 | 0.00 | 0.00 | 0.00 | 90 | 1021.8 |
| 20260507055256 | 12 | 227 | 3.2 | 0.0 | 0.00 | 0.00 | 0.00 | 90 | 1021.8 |
| 20260507054844 | 12 | 255 | 1.6 | 0.0 | 0.00 | 0.00 | 0.00 | 90 | 1021.6 |
| 20260507054644 | 12 | 205 | 3.2 | 0.0 | 0.00 | 0.00 | 0.00 | 90 | 1021.6 |
| 20260507054444 | 12 | 191 | 1.6 | 0.0 | 0.00 | 0.00 | 0.00 | 90 | 1021.8 |
| 20260507054042 | 12 | 220 | 1.6 | 0.0 | 0.00 | 0.00 | 0.00 | 90 | 1021.8 |
| 20260507053841 | 12 | 196 | 0.0 | 0.0 | 0.00 | 0.00 | 0.00 | 90 | 1021.7 |
| 20260507053642 | 12 | 226 | 1.6 | 0.0 | 0.00 | 0.00 | 0.00 | 90 | 1021.5 |
| 20260507053441 | 12 | 183 | 3.2 | 0.0 | 0.00 | 0.00 | 0.00 | 89 | 1021.6 |
| 20260507053240 | 12 | 187 | 8.0 | 0.0 | 0.00 | 0.00 | 0.00 | 89 | 1021.8 |
| 20260507053040 | 12 | 178 | 0.0 | 0.0 | 0.00 | 0.00 | 0.00 | 89 | 1021.5 |
| 20260507052853 | 12 | 195 | 1.6 | 0.0 | 0.00 | 0.00 | 0.00 | 89 | 1021.7 |
| 20260507052840 | 12 | 206 | 0.0 | 0.0 | 0.00 | 0.00 | 0.00 | 89 | 1021.6 |
| 20260507052249 | 12 | 232 | 1.6 | 0.0 | 0.00 | 0.00 | 0.00 | 88 | 1021.7 |
| 20260507051651 | 12 | 224 | 1.6 | 0.0 | 0.00 | 0.00 | 0.00 | 88 | 1021.8 |
| 20260507050434 | 12 | 140 | 0.0 | 0.0 | 0.00 | 0.00 | 0.00 | 88 | 1021.8 |
| 20260507050233 | 12 | 187 | 3.2 | 0.0 | 0.00 | 0.00 | 0.00 | 88 | 1021.7 |
| 20260507050032 | 12 | 130 | 1.6 | 0.0 | 0.00 | 0.00 | 0.00 | 88 | 1021.8 |
| 20260507045832 | 12 | 182 | 3.2 | 0.0 | 0.00 | 0.00 | 0.00 | 88 | 1021.5 |
| 20260507045643 | 12 | 214 | 1.6 | 0.0 | 0.00 | 0.00 | 0.00 | 88 | 1021.6 |
| 20260507045631 | 12 | 204 | 3.2 | 0.0 | 0.00 | 0.00 | 0.00 | 88 | 1021.8 |
| 20260507045229 | 12 | 209 | 4.8 | 0.0 | 0.00 | 0.00 | 0.00 | 88 | 1021.6 |
| 20260507044829 | 12 | 165 | 4.8 | 0.0 | 0.00 | 0.00 | 0.00 | 88 | 1021.8 |
| 20260507044629 | 12 | 224 | 1.6 | 0.0 | 0.00 | 0.00 | 0.00 | 88 | 1021.9 |
| 20260507044429 | 12 | 178 | 3.2 | 0.0 | 0.00 | 0.00 | 0.00 | 88 | 1021.8 |
| 20260507044228 | 12 | 186 | 1.6 | 0.0 | 0.00 | 0.00 | 0.00 | 88 | 1021.7 |
| 20260507044027 | 12 | 209 | 1.6 | 0.0 | 0.00 | 0.00 | 0.00 | 88 | 1021.7 |
| 20260507043826 | 12 | 202 | 3.2 | 0.0 | 0.00 | 0.00 | 0.00 | 88 | 1021.8 |
| 20260507043626 | 12 | 198 | 1.6 | 0.0 | 0.00 | 0.00 | 0.00 | 88 | 1021.7 |
| 20260507043426 | 12 | 189 | 1.6 | 0.0 | 0.00 | 0.00 | 0.00 | 87 | 1021.8 |
| 20260507043225 | 12 | 237 | 1.6 | 0.0 | 0.00 | 0.00 | 0.00 | 87 | 1021.8 |
| 20260507043024 | 12 | 135 | 1.6 | 0.0 | 0.00 | 0.00 | 0.00 | 87 | 1021.8 |
| 20260507042824 | 12 | 193 | 4.8 | 0.0 | 0.00 | 0.00 | 0.00 | 87 | 1021.8 |
| 20260507042424 | 12 | 161 | 0.0 | 0.0 | 0.00 | 0.00 | 0.00 | 87 | 1021.6 |
| 20260507042223 | 12 | 177 | 3.2 | 0.0 | 0.00 | 0.00 | 0.00 | 87 | 1021.6 |
| 20260507042023 | 12 | 225 | 1.6 | 0.0 | 0.00 | 0.00 | 0.00 | 88 | 1021.6 |
| 20260507041822 | 12 | 219 | 4.8 | 0.0 | 0.00 | 0.00 | 0.00 | 87 | 1021.6 |
| 20260507041622 | 12 | 192 | 3.2 | 0.0 | 0.00 | 0.00 | 0.00 | 87 | 1021.6 |
| 20260507041020 | 12 | 196 | 4.8 | 0.0 | 0.00 | 0.00 | 0.00 | 88 | 1021.7 |
| 20260507040618 | 12 | 185 | 1.6 | 0.0 | 0.00 | 0.00 | 0.00 | 88 | 1021.5 |
| 20260507040418 | 12 | 222 | 0.0 | 0.0 | 0.00 | 0.00 | 0.00 | 87 | 1021.6 |
| 20260507040017 | 12 | 287 | 0.0 | 0.0 | 0.00 | 0.00 | 0.00 | 88 | 1021.5 |
| 20260507035817 | 12 | 200 | 1.6 | 0.0 | 0.00 | 0.00 | 0.00 | 88 | 1021.6 |
| 20260507035615 | 12 | 198 | 1.6 | 0.0 | 0.00 | 0.00 | 0.00 | 88 | 1021.6 |
| 20260507035415 | 12 | 174 | 3.2 | 0.0 | 0.00 | 0.00 | 0.00 | 88 | 1021.6 |
| 20260507035014 | 12 | 198 | 4.8 | 0.0 | 0.00 | 0.00 | 0.00 | 88 | 1021.3 |
| 20260507034813 | 12 | 210 | 1.6 | 0.0 | 0.00 | 0.00 | 0.00 | 88 | 1021.5 |
| 20260507034613 | 13 | 201 | 0.0 | 0.0 | 0.00 | 0.00 | 0.00 | 88 | 1021.6 |
| 20260507034426 | 13 | 199 | 4.8 | 0.0 | 0.00 | 0.00 | 0.00 | 88 | 1021.3 |
| 20260507034412 | 13 | 182 | 4.8 | 0.0 | 0.00 | 0.00 | 0.00 | 88 | 1021.3 |
| 20260507034020 | 13 | 174 | 1.6 | 0.0 | 0.00 | 0.00 | 0.00 | 87 | 1021.3 |
| 20260507034011 | 13 | 147 | 1.6 | 0.0 | 0.00 | 0.00 | 0.00 | 87 | 1021.5 |
| 20260507033409 | 13 | 198 | 1.6 | 0.0 | 0.00 | 0.00 | 0.00 | 87 | 1021.4 |
| 20260507033210 | 13 | 210 | 3.2 | 0.0 | 0.00 | 0.00 | 0.00 | 86 | 1021.3 |
| 20260507033008 | 13 | 165 | 3.2 | 0.0 | 0.00 | 0.00 | 0.00 | 85 | 1021.3 |
| 20260507032808 | 13 | 180 | 1.6 | 0.0 | 0.00 | 0.00 | 0.00 | 85 | 1021.2 |
| 20260507032620 | 13 | 186 | 4.8 | 0.0 | 0.00 | 0.00 | 0.00 | 85 | 1021.4 |
| 20260507032207 | 13 | 222 | 3.2 | 0.0 | 0.00 | 0.00 | 0.00 | 84 | 1021.3 |
| 20260507032008 | 13 | 195 | 1.6 | 0.0 | 0.00 | 0.00 | 0.00 | 84 | 1021.3 |
| 20260507031806 | 13 | 235 | 1.6 | 0.0 | 0.00 | 0.00 | 0.00 | 83 | 1021.2 |
| 20260507031616 | 13 | 195 | 1.6 | 0.0 | 0.00 | 0.00 | 0.00 | 84 | 1021.2 |
| 20260507031605 | 13 | 208 | 0.0 | 0.0 | 0.00 | 0.00 | 0.00 | 84 | 1021.2 |
| 20260507031204 | 13 | 208 | 1.6 | 0.0 | 0.00 | 0.00 | 0.00 | 83 | 1021.5 |
| 20260507030804 | 13 | 178 | 1.6 | 0.0 | 0.00 | 0.00 | 0.00 | 83 | 1021.2 |
| 20260507030604 | 13 | 201 | 4.8 | 0.0 | 0.00 | 0.00 | 0.00 | 83 | 1021.4 |
| 20260507030404 | 13 | 195 | 4.8 | 0.0 | 0.00 | 0.00 | 0.00 | 82 | 1021.2 |
| 20260507030202 | 13 | 194 | 4.8 | 0.0 | 0.00 | 0.00 | 0.00 | 82 | 1021.2 |
| 20260507030002 | 13 | 144 | 1.6 | 0.0 | 0.00 | 0.00 | 0.00 | 83 | 1021.3 |
| 20260507025802 | 13 | 232 | 4.8 | 0.0 | 0.00 | 0.00 | 0.00 | 82 | 1021.3 |
| 20260507025613 | 13 | 202 | 0.0 | 0.0 | 0.00 | 0.00 | 0.00 | 82 | 1021.1 |
| 20260507025602 | 13 | 158 | 1.6 | 0.0 | 0.00 | 0.00 | 0.00 | 82 | 1021.3 |
| 20260507024601 | 13 | 224 | 1.6 | 0.0 | 0.00 | 0.00 | 0.00 | 82 | 1021.1 |
| 20260507024159 | 13 | 177 | 0.0 | 0.0 | 0.00 | 0.00 | 0.00 | 82 | 1021.1 |
| 20260507023610 | 13 | 199 | 4.8 | 0.0 | 0.00 | 0.00 | 0.00 | 81 | 1021.1 |
| 20260507023559 | 13 | 181 | 1.6 | 0.0 | 0.00 | 0.00 | 0.00 | 82 | 1021.2 |
| 20260507023209 | 13 | 214 | 3.2 | 0.0 | 0.00 | 0.00 | 0.00 | 81 | 1021.0 |
| 20260507023159 | 13 | 243 | 0.0 | 0.0 | 0.00 | 0.00 | 0.00 | 82 | 1021.1 |
| 20260507021756 | 13 | 84 | 0.0 | 0.0 | 0.00 | 0.00 | 0.00 | 83 | 1021.0 |
| 20260507021555 | 13 | 192 | 3.2 | 0.0 | 0.00 | 0.00 | 0.00 | 82 | 1021.0 |
| 20260507021008 | 13 | 170 | 1.6 | 0.0 | 0.00 | 0.00 | 0.00 | 83 | 1021.0 |
| 20260507020152 | 13 | 112 | 0.0 | 0.0 | 0.00 | 0.00 | 0.00 | 83 | 1021.0 |
| 20260507015752 | 13 | 172 | 0.0 | 0.0 | 0.00 | 0.00 | 0.00 | 83 | 1020.9 |
| 20260507014802 | 13 | 104 | 1.6 | 0.0 | 0.00 | 0.00 | 0.00 | 82 | 1020.8 |
| 20260507014348 | 13 | 187 | 3.2 | 0.0 | 0.00 | 0.00 | 0.00 | 82 | 1020.9 |
| 20260507014148 | 13 | 244 | 3.2 | 0.0 | 0.00 | 0.00 | 0.00 | 82 | 1021.0 |
| 20260507013948 | 13 | 156 | 1.6 | 0.0 | 0.00 | 0.00 | 0.00 | 82 | 1021.0 |
| 20260507013748 | 13 | 175 | 6.4 | 0.0 | 0.00 | 0.00 | 0.00 | 82 | 1020.9 |
| 20260507012544 | 14 | 174 | 1.6 | 0.0 | 0.00 | 0.00 | 0.00 | 81 | 1021.0 |
| 20260507012144 | 14 | 237 | 0.0 | 0.0 | 0.00 | 0.00 | 0.00 | 82 | 1021.0 |
| 20260507011151 | 14 | 168 | 1.6 | 0.0 | 0.00 | 0.00 | 0.00 | 81 | 1021.0 |
| 20260507011140 | 14 | 200 | 1.6 | 0.0 | 0.00 | 0.00 | 0.00 | 82 | 1021.1 |
| 20260507010954 | 14 | 176 | 1.6 | 0.0 | 0.00 | 0.00 | 0.00 | 81 | 1021.0 |
| 20260507010339 | 14 | 189 | 1.6 | 0.0 | 0.00 | 0.00 | 0.00 | 80 | 1021.0 |
| 20260507010139 | 14 | 201 | 1.6 | 0.0 | 0.00 | 0.00 | 0.00 | 80 | 1020.9 |
| 20260507005938 | 14 | 199 | 4.8 | 0.0 | 0.00 | 0.00 | 0.00 | 81 | 1021.0 |
| 20260507005136 | 14 | 156 | 3.2 | 0.0 | 0.00 | 0.00 | 0.00 | 80 | 1021.0 |
| 20260507004935 | 14 | 108 | 1.6 | 0.0 | 0.00 | 0.00 | 0.00 | 80 | 1021.1 |
| 20260507004735 | 14 | 199 | 4.8 | 0.0 | 0.00 | 0.00 | 0.00 | 80 | 1021.0 |
| 20260507004334 | 14 | 167 | 4.8 | 0.0 | 0.00 | 0.00 | 0.00 | 80 | 1021.0 |
| 20260507004133 | 14 | 179 | 1.6 | 0.0 | 0.00 | 0.00 | 0.00 | 80 | 1021.1 |
| 20260507003946 | 14 | 212 | 0.0 | 0.0 | 0.00 | 0.00 | 0.00 | 80 | 1021.0 |
| 20260507003533 | 14 | 187 | 1.6 | 0.0 | 0.00 | 0.00 | 0.00 | 80 | 1021.1 |
| 20260507003342 | 14 | 187 | 4.8 | 0.0 | 0.00 | 0.00 | 0.00 | 79 | 1021.1 |
| 20260507003333 | 14 | 186 | 1.6 | 0.0 | 0.00 | 0.00 | 0.00 | 80 | 1021.1 |
| 20260507002731 | 14 | 148 | 1.6 | 0.0 | 0.00 | 0.00 | 0.00 | 80 | 1021.1 |
| 20260507002338 | 14 | 202 | 3.2 | 0.0 | 0.00 | 0.00 | 0.00 | 81 | 1021.1 |
| 20260507002330 | 14 | 122 | 1.6 | 0.0 | 0.00 | 0.00 | 0.00 | 79 | 1021.1 |
| 20260507001928 | 14 | 162 | 0.0 | 0.0 | 0.00 | 0.00 | 0.00 | 80 | 1021.0 |
| 20260507001729 | 14 | 176 | 1.6 | 0.0 | 0.00 | 0.00 | 0.00 | 81 | 1021.1 |
| 20260507001528 | 14 | 199 | 3.2 | 0.0 | 0.00 | 0.00 | 0.00 | 80 | 1021.1 |
| 20260507001339 | 14 | 140 | 0.0 | 0.0 | 0.00 | 0.00 | 0.00 | 80 | 1021.0 |
| 20260507000939 | 14 | 112 | 1.6 | 0.0 | 0.00 | 0.00 | 0.00 | 80 | 1021.0 |
| 20260507000925 | 14 | 188 | 1.6 | 0.0 | 0.00 | 0.00 | 0.00 | 80 | 1021.1 |
| 20260507000525 | 14 | 182 | 0.0 | 0.0 | 0.00 | 0.00 | 0.00 | 81 | 1021.0 |
| 20260506235722 | 14 | 211 | 3.2 | 0.0 | 0.00 | 0.00 | 0.00 | 81 | 1021.1 |
| 20260506235522 | 14 | 185 | 4.8 | 0.0 | 0.00 | 0.00 | 0.00 | 80 | 1021.0 |
| 20260506235321 | 14 | 192 | 4.8 | 0.0 | 0.00 | 0.00 | 0.00 | 80 | 1021.0 |
| 20260506235134 | 14 | 139 | 1.6 | 0.0 | 0.00 | 0.00 | 0.00 | 80 | 1021.2 |
| 20260506234732 | 14 | 106 | 1.6 | 0.0 | 0.00 | 0.00 | 0.00 | 82 | 1021.1 |
| 20260506234332 | 14 | 212 | 3.2 | 0.0 | 0.00 | 0.00 | 0.00 | 80 | 1021.1 |
| 20260506233918 | 14 | 165 | 0.0 | 0.0 | 0.00 | 0.00 | 0.00 | 80 | 1021.0 |
| 20260506233717 | 14 | 198 | 4.8 | 0.0 | 0.00 | 0.00 | 0.00 | 80 | 1021.1 |
| 20260506233116 | 13 | 173 | 1.6 | 0.0 | 0.00 | 0.00 | 0.00 | 80 | 1021.1 |
| 20260506232927 | 14 | 169 | 0.0 | 0.0 | 0.00 | 0.00 | 0.00 | 79 | 1021.1 |
| 20260506232314 | 14 | 168 | 3.2 | 0.0 | 0.00 | 0.00 | 0.00 | 79 | 1021.0 |
| 20260506231913 | 14 | 204 | 3.2 | 0.0 | 0.00 | 0.00 | 0.00 | 80 | 1021.1 |
| 20260506231712 | 14 | 196 | 0.0 | 0.0 | 0.00 | 0.00 | 0.00 | 80 | 1021.1 |
| 20260506231523 | 13 | 206 | 1.6 | 0.0 | 0.00 | 0.00 | 0.00 | 80 | 1021.1 |
| 20260506230911 | 13 | 195 | 1.6 | 0.0 | 0.00 | 0.00 | 0.00 | 81 | 1021.2 |
| 20260506230709 | 13 | 199 | 1.6 | 0.0 | 0.00 | 0.00 | 0.00 | 80 | 1021.1 |
| 20260506230523 | 14 | 179 | 3.2 | 0.0 | 0.00 | 0.00 | 0.00 | 79 | 1021.2 |
| 20260506230509 | 13 | 137 | 1.6 | 0.0 | 0.00 | 0.00 | 0.00 | 79 | 1021.2 |
| 20260506230109 | 14 | 187 | 8.0 | 0.0 | 0.00 | 0.00 | 0.00 | 80 | 1021.2 |
| 20260506225909 | 14 | 135 | 1.6 | 0.0 | 0.00 | 0.00 | 0.00 | 80 | 1021.2 |
| 20260506225708 | 14 | 178 | 3.2 | 0.0 | 0.00 | 0.00 | 0.00 | 80 | 1021.2 |
| 20260506225519 | 13 | 131 | 3.2 | 0.0 | 0.00 | 0.00 | 0.00 | 79 | 1021.2 |
| 20260506225107 | 14 | 194 | 3.2 | 0.0 | 0.00 | 0.00 | 0.00 | 79 | 1021.2 |
| 20260506224905 | 14 | 174 | 3.2 | 0.0 | 0.00 | 0.00 | 0.00 | 80 | 1021.2 |
| 20260506224706 | 14 | 301 | 1.6 | 0.0 | 0.00 | 0.00 | 0.00 | 81 | 1021.4 |
| 20260506224505 | 13 | 229 | 1.6 | 0.0 | 0.00 | 0.00 | 0.00 | 80 | 1021.3 |
| 20260506224304 | 13 | 226 | 3.2 | 0.0 | 0.00 | 0.00 | 0.00 | 79 | 1021.2 |
| 20260506224115 | 13 | 202 | 3.2 | 0.0 | 0.00 | 0.00 | 0.00 | 79 | 1021.3 |
| 20260506224105 | 14 | 240 | 1.6 | 0.0 | 0.00 | 0.00 | 0.00 | 79 | 1021.3 |
| 20260506223714 | 14 | 140 | 1.6 | 0.0 | 0.00 | 0.00 | 0.00 | 79 | 1021.2 |
| 20260506223705 | 14 | 198 | 6.4 | 0.0 | 0.00 | 0.00 | 0.00 | 79 | 1021.2 |
| 20260506223304 | 14 | 210 | 1.6 | 0.0 | 0.00 | 0.00 | 0.00 | 78 | 1021.1 |
| 20260506223103 | 14 | 107 | 1.6 | 0.0 | 0.00 | 0.00 | 0.00 | 78 | 1021.2 |
| 20260506222902 | 14 | 185 | 1.6 | 0.0 | 0.00 | 0.00 | 0.00 | 79 | 1021.2 |
| 20260506222702 | 14 | 90 | 1.6 | 0.0 | 0.00 | 0.00 | 0.00 | 79 | 1021.1 |
| 20260506222501 | 14 | 106 | 1.6 | 0.0 | 0.00 | 0.00 | 0.00 | 79 | 1021.2 |
| 20260506222301 | 13 | 90 | 1.6 | 0.0 | 0.00 | 0.00 | 0.00 | 79 | 1021.2 |
| 20260506222101 | 14 | 165 | 3.2 | 0.0 | 0.00 | 0.00 | 0.00 | 80 | 1021.2 |
| 20260506221900 | 13 | 122 | 1.6 | 0.0 | 0.00 | 0.00 | 0.00 | 80 | 1021.3 |
| 20260506221659 | 13 | 212 | 3.2 | 0.0 | 0.00 | 0.00 | 0.00 | 79 | 1021.2 |
| 20260506221507 | 14 | 173 | 3.2 | 0.0 | 0.00 | 0.00 | 0.00 | 78 | 1021.3 |
| 20260506221459 | 14 | 148 | 1.6 | 0.0 | 0.00 | 0.00 | 0.00 | 79 | 1021.4 |
| 20260506221113 | 14 | 229 | 1.6 | 0.0 | 0.00 | 0.00 | 0.00 | 80 | 1021.4 |
| 20260506221059 | 14 | 117 | 1.6 | 0.0 | 0.00 | 0.00 | 0.00 | 79 | 1021.3 |
| 20260506220257 | 13 | 207 | 1.6 | 0.0 | 0.00 | 0.00 | 0.00 | 79 | 1021.4 |
| 20260506220057 | 13 | 106 | 1.6 | 0.0 | 0.00 | 0.00 | 0.00 | 79 | 1021.4 |
| 20260506215856 | 13 | 180 | 8.0 | 0.0 | 0.00 | 0.00 | 0.00 | 79 | 1021.4 |
| 20260506215656 | 13 | 232 | 4.8 | 0.0 | 0.00 | 0.00 | 0.00 | 79 | 1021.4 |
| 20260506215456 | 13 | 187 | 4.8 | 0.0 | 0.00 | 0.00 | 0.00 | 80 | 1021.5 |
| 20260506215054 | 13 | 148 | 1.6 | 0.0 | 0.00 | 0.00 | 0.00 | 80 | 1021.5 |
| 20260506214854 | 13 | 184 | 9.7 | 0.0 | 0.00 | 0.00 | 0.00 | 79 | 1021.4 |
| 20260506214654 | 13 | 206 | 6.4 | 0.0 | 0.00 | 0.00 | 0.00 | 78 | 1021.5 |
| 20260506214454 | 13 | 170 | 3.2 | 0.0 | 0.00 | 0.00 | 0.00 | 79 | 1021.6 |
| 20260506214253 | 13 | 213 | 3.2 | 0.0 | 0.00 | 0.00 | 0.00 | 78 | 1021.5 |
| 20260506214054 | 13 | 174 | 1.6 | 0.0 | 0.00 | 0.00 | 0.00 | 79 | 1021.5 |
| 20260506213852 | 13 | 204 | 3.2 | 0.0 | 0.00 | 0.00 | 0.00 | 79 | 1021.5 |
| 20260506213653 | 13 | 169 | 4.8 | 0.0 | 0.00 | 0.00 | 0.00 | 77 | 1021.5 |
| 20260506213252 | 13 | 90 | 0.0 | 0.0 | 0.00 | 0.00 | 0.00 | 77 | 1021.5 |
| 20260506213101 | 13 | 197 | 3.2 | 0.0 | 0.00 | 0.00 | 0.00 | 77 | 1021.4 |
| 20260506213051 | 13 | 188 | 6.4 | 0.0 | 0.00 | 0.00 | 0.00 | 77 | 1021.4 |
| 20260506212650 | 13 | 191 | 1.6 | 0.0 | 0.00 | 0.00 | 0.00 | 77 | 1021.5 |
| 20260506212450 | 13 | 149 | 1.6 | 0.0 | 0.00 | 0.00 | 0.00 | 77 | 1021.5 |
| 20260506212249 | 13 | 202 | 4.8 | 0.0 | 0.00 | 0.00 | 0.00 | 78 | 1021.6 |
| 20260506212101 | 13 | 163 | 1.6 | 0.0 | 0.00 | 0.00 | 0.00 | 77 | 1021.6 |
| 20260506212049 | 13 | 320 | 1.6 | 0.0 | 0.00 | 0.00 | 0.00 | 79 | 1021.6 |
| 20260506211859 | 13 | 148 | 3.2 | 0.0 | 0.00 | 0.00 | 0.00 | 77 | 1021.7 |
| 20260506211447 | 13 | 154 | 6.4 | 0.0 | 0.00 | 0.00 | 0.00 | 77 | 1021.6 |
| 20260506211247 | 13 | 281 | 1.6 | 0.0 | 0.00 | 0.00 | 0.00 | 77 | 1021.5 |
| 20260506211057 | 13 | 174 | 3.2 | 0.0 | 0.00 | 0.00 | 0.00 | 77 | 1021.6 |
| 20260506211046 | 13 | 150 | 1.6 | 0.0 | 0.00 | 0.00 | 0.00 | 77 | 1021.7 |
| 20260506210444 | 13 | 178 | 1.6 | 0.0 | 0.00 | 0.00 | 0.00 | 77 | 1021.7 |
| 20260506210244 | 13 | 167 | 3.2 | 0.0 | 0.00 | 0.00 | 0.00 | 77 | 1021.6 |
| 20260506210043 | 13 | 211 | 3.2 | 0.0 | 0.00 | 0.00 | 0.00 | 78 | 1021.6 |
| 20260506205843 | 13 | 199 | 4.8 | 0.0 | 0.00 | 0.00 | 0.00 | 77 | 1021.5 |
| 20260506205642 | 13 | 143 | 1.6 | 0.0 | 0.00 | 0.00 | 0.00 | 77 | 1021.6 |
| 20260506205442 | 13 | 256 | 3.2 | 0.0 | 0.00 | 0.00 | 0.00 | 77 | 1021.5 |
| 20260506205242 | 13 | 311 | 1.6 | 0.0 | 0.00 | 0.00 | 0.00 | 77 | 1021.5 |
| 20260506205041 | 13 | 235 | 4.8 | 0.0 | 0.00 | 0.00 | 0.00 | 77 | 1021.5 |
| 20260506204851 | 13 | 202 | 1.6 | 0.0 | 0.00 | 0.00 | 0.00 | 76 | 1021.5 |
| 20260506204841 | 13 | 240 | 1.6 | 0.0 | 0.00 | 0.00 | 0.00 | 76 | 1021.5 |
| 20260506204440 | 13 | 60 | 0.0 | 0.0 | 0.00 | 0.00 | 0.00 | 76 | 1021.4 |
| 20260506204239 | 13 | 171 | 1.6 | 0.0 | 0.00 | 0.00 | 0.00 | 76 | 1021.4 |
| 20260506203837 | 13 | 170 | 1.6 | 0.0 | 0.00 | 0.00 | 0.00 | 76 | 1021.4 |
| 20260506203650 | 13 | 309 | 1.6 | 0.0 | 0.00 | 0.00 | 0.00 | 77 | 1021.4 |
| 20260506203235 | 13 | 183 | 4.8 | 0.0 | 0.00 | 0.00 | 0.00 | 76 | 1021.4 |
| 20260506203035 | 13 | 199 | 11.3 | 0.0 | 0.00 | 0.00 | 0.00 | 76 | 1021.5 |
| 20260506202835 | 13 | 315 | 1.6 | 0.0 | 0.00 | 0.00 | 0.00 | 75 | 1021.4 |
| 20260506202634 | 14 | 222 | 3.2 | 0.0 | 0.00 | 0.00 | 0.00 | 76 | 1021.3 |
| 20260506202447 | 14 | 170 | 3.2 | 0.0 | 0.00 | 0.00 | 0.00 | 75 | 1021.4 |
| 20260506202434 | 13 | 74 | 3.2 | 0.0 | 0.00 | 0.00 | 0.00 | 76 | 1021.2 |
| 20260506202034 | 14 | 172 | 1.6 | 0.0 | 0.00 | 0.00 | 0.00 | 75 | 1021.2 |
| 20260506201833 | 14 | 126 | 1.6 | 0.0 | 0.00 | 0.00 | 0.00 | 75 | 1021.4 |
| 20260506201232 | 13 | 219 | 0.0 | 0.0 | 0.00 | 0.00 | 0.00 | 75 | 1021.2 |
| 20260506201032 | 14 | 140 | 4.8 | 0.0 | 0.00 | 0.00 | 0.00 | 76 | 1021.3 |
| 20260506200832 | 14 | 315 | 1.6 | 0.0 | 0.00 | 0.00 | 0.00 | 76 | 1021.4 |
| 20260506200431 | 13 | 69 | 1.6 | 0.0 | 0.00 | 0.00 | 0.00 | 76 | 1021.1 |
| 20260506200231 | 13 | 30 | 1.6 | 0.0 | 0.00 | 0.00 | 0.00 | 77 | 1021.3 |
| 20260506195829 | 13 | 169 | 3.2 | 0.0 | 0.00 | 0.00 | 0.00 | 77 | 1021.4 |
| 20260506195629 | 13 | 144 | 0.0 | 0.0 | 0.00 | 0.00 | 0.00 | 76 | 1021.3 |
| 20260506195428 | 13 | 189 | 3.2 | 0.0 | 0.00 | 0.00 | 0.00 | 76 | 1021.1 |
| 20260506195228 | 13 | 163 | 1.6 | 0.0 | 0.00 | 0.00 | 0.00 | 76 | 1021.2 |
| 20260506194827 | 13 | 288 | 1.6 | 0.0 | 0.00 | 0.00 | 0.00 | 77 | 1021.2 |
| 20260506194627 | 13 | 229 | 1.6 | 0.0 | 0.00 | 0.00 | 0.00 | 76 | 1021.3 |
| 20260506194436 | 13 | 224 | 1.6 | 0.0 | 0.00 | 0.00 | 0.00 | 77 | 1021.2 |
| 20260506194426 | 13 | 208 | 6.4 | 0.0 | 0.00 | 0.00 | 0.00 | 77 | 1021.3 |
| 20260506194026 | 13 | 196 | 4.8 | 0.0 | 0.00 | 0.00 | 0.00 | 76 | 1021.2 |
| 20260506193826 | 13 | 296 | 4.8 | 0.0 | 0.00 | 0.00 | 0.00 | 77 | 1021.1 |
| 20260506193425 | 13 | 154 | 6.4 | 0.0 | 0.00 | 0.00 | 0.00 | 77 | 1021.2 |
| 20260506193224 | 13 | 193 | 1.6 | 0.0 | 0.00 | 0.00 | 0.00 | 78 | 1021.2 |
| 20260506193037 | 13 | 224 | 6.4 | 0.0 | 0.00 | 0.00 | 0.00 | 77 | 1021.4 |
| 20260506193024 | 13 | 173 | 1.6 | 0.0 | 0.00 | 0.00 | 0.00 | 78 | 1021.3 |
| 20260506192834 | 13 | 218 | 1.6 | 0.0 | 0.00 | 0.00 | 0.00 | 78 | 1021.1 |
| 20260506192421 | 13 | 108 | 1.6 | 0.0 | 0.00 | 0.00 | 0.00 | 77 | 1021.1 |
| 20260506192230 | 13 | 129 | 1.6 | 0.0 | 0.00 | 0.00 | 0.00 | 77 | 1021.2 |
| 20260506192221 | 13 | 161 | 1.6 | 0.0 | 0.00 | 0.00 | 0.00 | 77 | 1021.2 |
| 20260506192032 | 13 | 209 | 8.0 | 0.0 | 0.00 | 0.00 | 0.00 | 78 | 1021.3 |
| 20260506191620 | 13 | 167 | 1.6 | 0.0 | 0.00 | 0.00 | 0.00 | 78 | 1021.1 |
| 20260506191418 | 13 | 82 | 1.6 | 0.0 | 0.00 | 0.00 | 0.00 | 78 | 1021.0 |
| 20260506191218 | 13 | 195 | 3.2 | 0.0 | 0.00 | 0.00 | 0.00 | 78 | 1021.1 |
| 20260506190617 | 13 | 76 | 1.6 | 0.0 | 0.00 | 0.00 | 0.00 | 79 | 1021.1 |
| 20260506190417 | 13 | 210 | 3.2 | 0.0 | 0.00 | 0.00 | 0.00 | 78 | 1021.1 |
| 20260506185827 | 13 | 175 | 1.6 | 0.0 | 0.00 | 0.00 | 0.00 | 79 | 1021.0 |
| 20260506185816 | 13 | 231 | 1.6 | 0.0 | 0.00 | 0.00 | 0.00 | 79 | 1021.1 |
| 20260506185426 | 12 | 187 | 4.8 | 0.0 | 0.00 | 0.00 | 0.00 | 80 | 1021.2 |
| 20260506185413 | 13 | 192 | 4.8 | 0.0 | 0.00 | 0.00 | 0.00 | 79 | 1021.1 |
| 20260506185012 | 12 | 208 | 6.4 | 0.0 | 0.00 | 0.00 | 0.00 | 79 | 1021.1 |
| 20260506184822 | 13 | 174 | 1.6 | 0.0 | 0.00 | 0.00 | 0.00 | 78 | 1021.1 |
| 20260506184811 | 13 | 204 | 4.8 | 0.0 | 0.00 | 0.00 | 0.00 | 78 | 1020.9 |
| 20260506184411 | 13 | 212 | 4.8 | 0.0 | 0.00 | 0.00 | 0.00 | 79 | 1020.9 |
| 20260506184210 | 13 | 310 | 1.6 | 0.0 | 0.00 | 0.00 | 0.00 | 80 | 1021.0 |
| 20260506184010 | 13 | 172 | 3.2 | 0.0 | 0.00 | 0.00 | 0.00 | 79 | 1021.1 |
| 20260506183809 | 13 | 157 | 6.4 | 0.0 | 0.00 | 0.00 | 0.00 | 79 | 1021.1 |
| 20260506183607 | 13 | 155 | 6.4 | 0.0 | 0.00 | 0.00 | 0.00 | 79 | 1021.0 |
| 20260506183407 | 13 | 135 | 3.2 | 0.0 | 0.00 | 0.00 | 0.00 | 78 | 1021.2 |
| 20260506183207 | 13 | 221 | 3.2 | 0.0 | 0.00 | 0.00 | 0.00 | 79 | 1021.2 |
| 20260506183006 | 13 | 227 | 4.8 | 0.0 | 0.00 | 0.00 | 0.00 | 80 | 1021.2 |
| 20260506182819 | 12 | 204 | 1.6 | 0.0 | 0.00 | 0.00 | 0.00 | 81 | 1021.2 |
| 20260506182206 | 12 | 177 | 1.6 | 0.0 | 0.00 | 0.00 | 0.00 | 81 | 1021.1 |
| 20260506182017 | 12 | 205 | 8.0 | 0.0 | 0.00 | 0.00 | 0.00 | 82 | 1021.1 |
| 20260506182004 | 12 | 177 | 9.7 | 0.0 | 0.00 | 0.00 | 0.00 | 81 | 1021.2 |
| 20260506181604 | 12 | 266 | 1.6 | 0.0 | 0.00 | 0.00 | 0.00 | 82 | 1021.2 |
| 20260506181403 | 12 | 322 | 1.6 | 0.0 | 0.00 | 0.00 | 0.00 | 83 | 1021.1 |
| 20260506181203 | 12 | 169 | 6.4 | 0.0 | 0.00 | 0.00 | 0.00 | 83 | 1021.2 |
| 20260506181003 | 12 | 176 | 11.3 | 0.0 | 0.00 | 0.00 | 0.00 | 83 | 1021.2 |
| 20260506180803 | 12 | 216 | 4.8 | 0.0 | 0.00 | 0.00 | 0.00 | 83 | 1021.2 |
| 20260506180603 | 12 | 209 | 9.7 | 0.0 | 0.00 | 0.00 | 0.00 | 83 | 1021.1 |
| 20260506180401 | 12 | 221 | 4.8 | 0.0 | 0.00 | 0.00 | 0.00 | 83 | 1021.1 |
| 20260506180212 | 12 | 12 | 1.6 | 0.0 | 0.00 | 0.00 | 0.00 | 83 | 1021.0 |
| 20260506180015 | 12 | 141 | 1.6 | 0.0 | 0.00 | 0.00 | 0.00 | 84 | 1021.2 |
| 20260506175601 | 12 | 214 | 1.6 | 0.0 | 0.00 | 0.00 | 0.00 | 84 | 1021.1 |
| 20260506175400 | 12 | 212 | 4.8 | 0.0 | 0.00 | 0.00 | 0.00 | 83 | 1021.2 |
| 20260506174959 | 12 | 264 | 1.6 | 0.0 | 0.00 | 0.00 | 0.00 | 83 | 1021.2 |
| 20260506174758 | 12 | 252 | 4.8 | 0.0 | 0.00 | 0.00 | 0.00 | 84 | 1021.2 |
| 20260506174558 | 12 | 7 | 3.2 | 0.0 | 0.00 | 0.00 | 0.00 | 84 | 1020.8 |
| 20260506174357 | 12 | 258 | 1.6 | 0.0 | 0.00 | 0.00 | 0.00 | 85 | 1020.9 |
| 20260506174157 | 12 | 215 | 1.6 | 0.0 | 0.00 | 0.00 | 0.00 | 84 | 1020.8 |
| 20260506173957 | 12 | 184 | 11.3 | 0.0 | 0.00 | 0.00 | 0.00 | 84 | 1020.7 |
| 20260506173809 | 12 | 132 | 1.6 | 0.0 | 0.00 | 0.00 | 0.00 | 84 | 1020.5 |
| 20260506173757 | 12 | 232 | 1.6 | 0.0 | 0.00 | 0.00 | 0.00 | 83 | 1020.7 |
| 20260506173403 | 12 | 189 | 4.8 | 0.0 | 0.00 | 0.00 | 0.00 | 84 | 1020.6 |
| 20260506173354 | 12 | 200 | 12.9 | 0.0 | 0.00 | 0.00 | 0.00 | 84 | 1020.5 |
| 20260506173007 | 12 | 90 | 1.6 | 0.0 | 0.00 | 0.00 | 0.00 | 85 | 1020.6 |
| 20260506172953 | 12 | 186 | 11.3 | 0.0 | 0.00 | 0.00 | 0.00 | 85 | 1020.7 |
| 20260506172352 | 12 | 195 | 6.4 | 0.0 | 0.00 | 0.00 | 0.00 | 87 | 1020.6 |
| 20260506172152 | 12 | 186 | 4.8 | 0.0 | 0.00 | 0.00 | 0.00 | 87 | 1020.6 |
| 20260506171750 | 12 | 157 | 4.8 | 0.0 | 0.00 | 0.00 | 0.00 | 88 | 1020.9 |
| 20260506171550 | 11 | 188 | 3.2 | 0.0 | 0.00 | 0.00 | 0.00 | 88 | 1020.9 |
| 20260506171348 | 11 | 225 | 4.8 | 0.0 | 0.00 | 0.00 | 0.00 | 88 | 1020.8 |
| 20260506171148 | 11 | 159 | 3.2 | 0.0 | 0.00 | 0.00 | 0.00 | 89 | 1020.9 |
| 20260506170750 | 11 | 250 | 3.2 | 0.0 | 0.00 | 0.00 | 0.00 | 89 | 1021.1 |
| 20260506170547 | 11 | 185 | 11.3 | 0.0 | 0.00 | 0.00 | 0.00 | 89 | 1021.0 |
| 20260506170347 | 12 | 158 | 4.8 | 0.0 | 0.00 | 0.00 | 0.00 | 89 | 1020.9 |
| 20260506170146 | 12 | 194 | 8.0 | 0.0 | 0.00 | 0.00 | 0.00 | 89 | 1020.9 |
| 20260506165946 | 12 | 101 | 3.2 | 0.0 | 0.00 | 0.00 | 0.00 | 90 | 1020.9 |
| 20260506165756 | 12 | 251 | 6.4 | 0.0 | 0.00 | 0.00 | 0.00 | 88 | 1020.8 |
| 20260506165345 | 12 | 167 | 1.6 | 0.0 | 0.00 | 0.00 | 0.00 | 89 | 1021.0 |
| 20260506165145 | 12 | 179 | 4.8 | 0.0 | 0.00 | 0.00 | 0.00 | 89 | 1020.9 |
| 20260506164943 | 12 | 149 | 0.0 | 0.0 | 0.00 | 0.00 | 0.00 | 89 | 1021.1 |
| 20260506164742 | 12 | 215 | 4.8 | 0.0 | 0.00 | 0.00 | 0.00 | 89 | 1021.1 |
| 20260506164555 | 12 | 193 | 4.8 | 0.0 | 0.00 | 0.00 | 0.00 | 89 | 1020.7 |
| 20260506164154 | 12 | 170 | 3.2 | 0.0 | 0.00 | 0.00 | 0.00 | 89 | 1020.9 |
| 20260506164141 | 12 | 191 | 9.7 | 0.0 | 0.00 | 0.00 | 0.00 | 89 | 1020.8 |
| 20260506163951 | 12 | 198 | 3.2 | 0.0 | 0.00 | 0.00 | 0.00 | 89 | 1020.9 |
| 20260506163753 | 12 | 196 | 4.8 | 0.0 | 0.00 | 0.00 | 0.00 | 89 | 1020.8 |
| 20260506163550 | 12 | 344 | 3.2 | 0.0 | 0.00 | 0.00 | 0.00 | 89 | 1020.5 |
| 20260506162939 | 12 | 128 | 1.6 | 0.0 | 0.00 | 0.00 | 0.00 | 88 | 1020.8 |
| 20260506162738 | 12 | 195 | 4.8 | 0.0 | 0.00 | 0.00 | 0.00 | 88 | 1020.6 |
| 20260506162546 | 12 | 220 | 1.6 | 0.0 | 0.00 | 0.00 | 0.00 | 88 | 1020.8 |
| 20260506162537 | 12 | 171 | 1.6 | 0.0 | 0.00 | 0.00 | 0.00 | 88 | 1020.8 |
| 20260506162146 | 12 | 209 | 8.0 | 0.0 | 0.00 | 0.00 | 0.00 | 89 | 1020.7 |
| 20260506161948 | 12 | 182 | 1.6 | 0.0 | 0.00 | 0.00 | 0.00 | 89 | 1020.6 |
| 20260506161536 | 12 | 206 | 3.2 | 0.0 | 0.00 | 0.00 | 0.00 | 89 | 1020.6 |
| 20260506161335 | 12 | 191 | 4.8 | 0.0 | 0.00 | 0.00 | 0.00 | 90 | 1020.6 |
| 20260506160934 | 12 | 202 | 3.2 | 0.0 | 0.00 | 0.00 | 0.00 | 90 | 1020.8 |
| 20260506160733 | 12 | 202 | 8.0 | 0.0 | 0.00 | 0.00 | 0.00 | 91 | 1020.3 |
| 20260506160533 | 12 | 129 | 4.8 | 0.0 | 0.00 | 0.00 | 0.00 | 91 | 1020.4 |
| 20260506160346 | 11 | 198 | 4.8 | 0.0 | 0.00 | 0.00 | 0.00 | 91 | 1020.1 |
| 20260506160332 | 12 | 221 | 4.8 | 0.0 | 0.00 | 0.00 | 0.00 | 92 | 1020.1 |
| 20260506155742 | 12 | 171 | 0.0 | 0.0 | 0.00 | 0.00 | 0.00 | 91 | 1020.2 |
| 20260506155731 | 12 | 175 | 3.2 | 0.0 | 0.00 | 0.00 | 0.00 | 91 | 1020.2 |
| 20260506155341 | 12 | 187 | 3.2 | 0.0 | 0.00 | 0.00 | 0.00 | 91 | 1020.1 |
| 20260506155330 | 12 | 177 | 1.6 | 0.0 | 0.00 | 0.00 | 0.00 | 91 | 1019.9 |
| 20260506154929 | 12 | 207 | 4.8 | 0.0 | 0.00 | 0.00 | 0.00 | 91 | 1020.0 |
| 20260506154728 | 11 | 92 | 1.6 | 0.0 | 0.00 | 0.00 | 0.00 | 91 | 1020.2 |
| 20260506154529 | 11 | 178 | 6.4 | 0.0 | 0.00 | 0.00 | 0.00 | 91 | 1020.1 |
| 20260506154337 | 11 | 143 | 4.8 | 0.0 | 0.00 | 0.00 | 0.00 | 93 | 1019.9 |
| 20260506154328 | 11 | 135 | 1.6 | 0.0 | 0.00 | 0.00 | 0.00 | 92 | 1020.2 |
| 20260506153927 | 11 | 183 | 3.2 | 0.0 | 0.00 | 0.00 | 0.00 | 93 | 1020.0 |
| 20260506153739 | 11 | 201 | 4.8 | 0.0 | 0.00 | 0.00 | 0.00 | 92 | 1020.1 |
| 20260506153726 | 11 | 214 | 3.2 | 0.0 | 0.00 | 0.00 | 0.00 | 93 | 1020.0 |
| 20260506153325 | 11 | 186 | 1.6 | 0.0 | 0.00 | 0.00 | 0.00 | 93 | 1020.1 |
| 20260506153124 | 11 | 128 | 1.6 | 0.0 | 0.00 | 0.00 | 0.00 | 93 | 1020.2 |
| 20260506152923 | 11 | 178 | 3.2 | 0.0 | 0.00 | 0.00 | 0.00 | 93 | 1020.2 |
| 20260506152723 | 11 | 188 | 1.6 | 0.0 | 0.00 | 0.00 | 0.00 | 94 | 1020.3 |
| 20260506152122 | 11 | 184 | 6.4 | 0.0 | 0.00 | 0.00 | 0.00 | 94 | 1020.6 |
| 20260506151922 | 11 | 181 | 6.4 | 0.0 | 0.00 | 0.00 | 0.00 | 94 | 1020.5 |
| 20260506151721 | 11 | 134 | 1.6 | 0.0 | 0.00 | 0.00 | 0.00 | 94 | 1020.5 |
| 20260506151521 | 11 | 187 | 1.6 | 0.0 | 0.00 | 0.00 | 0.00 | 94 | 1020.3 |
| 20260506151119 | 11 | 186 | 1.6 | 0.0 | 0.00 | 0.00 | 0.00 | 94 | 1020.4 |
| 20260506150919 | 11 | 174 | 0.0 | 0.0 | 0.00 | 0.00 | 0.00 | 94 | 1020.6 |
| 20260506150116 | 11 | 171 | 0.0 | 0.0 | 0.00 | 0.00 | 0.00 | 93 | 1020.3 |
| 20260506145916 | 11 | 153 | 1.6 | 0.0 | 0.00 | 0.00 | 0.00 | 93 | 1020.6 |
| 20260506145716 | 11 | 168 | 3.2 | 0.0 | 0.00 | 0.00 | 0.00 | 93 | 1020.7 |
| 20260506145515 | 11 | 208 | 3.2 | 0.0 | 0.00 | 0.00 | 0.00 | 93 | 1020.6 |
| 20260506145315 | 11 | 173 | 1.6 | 0.0 | 0.00 | 0.00 | 0.00 | 93 | 1020.4 |
| 20260506144914 | 11 | 102 | 3.2 | 0.0 | 0.00 | 0.00 | 0.00 | 93 | 1020.1 |
| 20260506144714 | 11 | 184 | 4.8 | 0.0 | 0.00 | 0.00 | 0.00 | 93 | 1020.2 |
| 20260506144525 | 11 | 176 | 1.6 | 0.0 | 0.00 | 0.00 | 0.00 | 94 | 1020.1 |
| 20260506144113 | 11 | 200 | 1.6 | 0.0 | 0.00 | 0.00 | 0.00 | 94 | 1019.7 |
| 20260506143912 | 11 | 142 | 0.0 | 0.0 | 0.00 | 0.00 | 0.00 | 94 | 1020.0 |
| 20260506143711 | 11 | 208 | 1.6 | 0.0 | 0.00 | 0.00 | 0.00 | 94 | 1020.0 |
| 20260506143510 | 11 | 156 | 0.0 | 0.0 | 0.00 | 0.00 | 0.00 | 94 | 1020.0 |
| 20260506143310 | 11 | 208 | 3.2 | 0.0 | 0.00 | 0.00 | 0.00 | 94 | 1020.1 |
| 20260506143110 | 11 | 168 | 4.8 | 0.0 | 0.00 | 0.00 | 0.00 | 94 | 1020.1 |
| 20260506142923 | 11 | 239 | 1.6 | 0.0 | 0.00 | 0.00 | 0.00 | 95 | 1020.1 |
| 20260506142910 | 11 | 186 | 3.2 | 0.0 | 0.00 | 0.00 | 0.00 | 94 | 1020.1 |
| 20260506142319 | 11 | 167 | 1.6 | 0.0 | 0.00 | 0.00 | 0.00 | 95 | 1020.1 |
| 20260506142308 | 11 | 182 | 1.6 | 0.0 | 0.00 | 0.00 | 0.00 | 95 | 1020.1 |
| 20260506142122 | 11 | 189 | 3.2 | 0.0 | 0.00 | 0.00 | 0.00 | 95 | 1020.1 |
| 20260506141708 | 11 | 186 | 1.6 | 0.0 | 0.00 | 0.00 | 0.00 | 95 | 1020.1 |
| 20260506141320 | 11 | 194 | 1.6 | 0.0 | 0.00 | 0.00 | 0.00 | 95 | 1020.3 |
| 20260506141307 | 11 | 225 | 4.8 | 0.0 | 0.00 | 0.00 | 0.00 | 95 | 1020.2 |
| 20260506140705 | 11 | 228 | 3.2 | 0.0 | 0.00 | 0.00 | 0.00 | 95 | 1020.1 |
| 20260506140505 | 11 | 215 | 3.2 | 0.0 | 0.00 | 0.00 | 0.00 | 95 | 1020.1 |
| 20260506135902 | 11 | 161 | 4.8 | 0.0 | 0.00 | 0.00 | 0.00 | 95 | 1020.1 |
| 20260506135702 | 11 | 160 | 1.6 | 0.0 | 0.00 | 0.00 | 0.00 | 95 | 1020.1 |
| 20260506135301 | 11 | 208 | 3.2 | 0.0 | 0.00 | 0.00 | 0.00 | 95 | 1020.0 |
| 20260506135102 | 11 | 203 | 3.2 | 0.0 | 0.00 | 0.00 | 0.00 | 95 | 1020.0 |
| 20260506134900 | 11 | 273 | 1.6 | 0.0 | 0.00 | 0.00 | 0.00 | 95 | 1019.9 |
| 20260506133858 | 11 | 173 | 0.0 | 0.0 | 0.00 | 0.00 | 0.00 | 94 | 1020.1 |
| 20260506133657 | 11 | 134 | 1.6 | 0.0 | 0.00 | 0.00 | 0.00 | 94 | 1020.1 |
| 20260506133309 | 11 | 176 | 1.6 | 0.0 | 0.00 | 0.00 | 0.00 | 93 | 1020.1 |
| 20260506132654 | 11 | 171 | 3.2 | 0.0 | 0.00 | 0.00 | 0.00 | 92 | 1020.1 |
| 20260506132508 | 11 | 199 | 3.2 | 0.0 | 0.00 | 0.00 | 0.00 | 92 | 1019.9 |
| 20260506132053 | 11 | 179 | 1.6 | 0.0 | 0.00 | 0.00 | 0.00 | 92 | 1019.8 |
| 20260506131904 | 11 | 157 | 0.0 | 0.0 | 0.00 | 0.00 | 0.00 | 92 | 1020.0 |
| 20260506131852 | 11 | 179 | 0.0 | 0.0 | 0.00 | 0.00 | 0.00 | 92 | 1020.0 |
| 20260506131451 | 11 | 176 | 1.6 | 0.0 | 0.00 | 0.00 | 0.00 | 92 | 1020.0 |
| 20260506130849 | 11 | 205 | 1.6 | 0.0 | 0.00 | 0.00 | 0.00 | 92 | 1019.9 |
| 20260506130648 | 11 | 166 | 1.6 | 0.0 | 0.00 | 0.00 | 0.00 | 92 | 1019.8 |
| 20260506130448 | 11 | 190 | 6.4 | 0.0 | 0.00 | 0.00 | 0.00 | 92 | 1020.0 |
| 20260506130248 | 11 | 161 | 1.6 | 0.0 | 0.00 | 0.00 | 0.00 | 92 | 1019.8 |
| 20260506130047 | 11 | 177 | 3.2 | 0.0 | 0.00 | 0.00 | 0.00 | 92 | 1019.9 |
| 20260506125245 | 11 | 116 | 0.0 | 0.0 | 0.00 | 0.00 | 0.00 | 92 | 1019.6 |
| 20260506124845 | 11 | 245 | 1.6 | 0.0 | 0.00 | 0.00 | 0.00 | 91 | 1019.7 |
| 20260506124643 | 11 | 161 | 3.2 | 0.0 | 0.00 | 0.00 | 0.00 | 91 | 1019.6 |
| 20260506124040 | 11 | 159 | 1.6 | 0.0 | 0.00 | 0.00 | 0.00 | 91 | 1019.2 |
| 20260506123841 | 11 | 122 | 1.6 | 0.0 | 0.00 | 0.00 | 0.00 | 91 | 1019.2 |
| 20260506123650 | 11 | 180 | 3.2 | 0.0 | 0.00 | 0.00 | 0.00 | 91 | 1019.5 |
| 20260506123640 | 11 | 190 | 4.8 | 0.0 | 0.00 | 0.00 | 0.00 | 91 | 1019.5 |
| 20260506123452 | 11 | 188 | 1.6 | 0.0 | 0.00 | 0.00 | 0.00 | 91 | 1019.5 |
| 20260506123039 | 11 | 200 | 4.8 | 0.0 | 0.00 | 0.00 | 0.00 | 91 | 1019.5 |
| 20260506122838 | 11 | 180 | 3.2 | 0.0 | 0.00 | 0.00 | 0.00 | 91 | 1019.6 |
| 20260506122639 | 11 | 177 | 4.8 | 0.0 | 0.00 | 0.00 | 0.00 | 91 | 1019.5 |
| 20260506122250 | 11 | 196 | 11.3 | 0.0 | 0.00 | 0.00 | 0.00 | 91 | 1019.6 |
| 20260506122238 | 11 | 205 | 3.2 | 0.0 | 0.00 | 0.00 | 0.00 | 91 | 1019.5 |
| 20260506121837 | 11 | 223 | 1.6 | 0.0 | 0.00 | 0.00 | 0.00 | 91 | 1019.4 |
| 20260506121637 | 11 | 199 | 4.8 | 0.0 | 0.00 | 0.00 | 0.00 | 91 | 1019.5 |
| 20260506121235 | 11 | 177 | 0.0 | 0.0 | 0.00 | 0.00 | 0.00 | 91 | 1019.5 |
| 20260506121048 | 11 | 202 | 3.2 | 0.0 | 0.00 | 0.00 | 0.00 | 91 | 1019.3 |
| 20260506121035 | 11 | 80 | 1.6 | 0.0 | 0.00 | 0.00 | 0.00 | 91 | 1019.4 |
| 20260506120633 | 11 | 6 | 3.2 | 0.0 | 0.00 | 0.00 | 0.00 | 91 | 1019.3 |
| 20260506120241 | 11 | 334 | 1.6 | 0.0 | 0.00 | 0.00 | 0.00 | 91 | 1019.2 |
| 20260506120232 | 11 | 172 | 0.0 | 0.0 | 0.00 | 0.00 | 0.00 | 91 | 1019.1 |
| 20260506115832 | 11 | 136 | 1.6 | 0.0 | 0.00 | 0.00 | 0.00 | 91 | 1019.1 |
| 20260506115631 | 11 | 228 | 3.2 | 0.0 | 0.00 | 0.00 | 0.00 | 91 | 1019.1 |
| 20260506115030 | 11 | 212 | 1.6 | 0.0 | 0.00 | 0.00 | 0.00 | 91 | 1019.2 |
| 20260506114829 | 11 | 195 | 3.2 | 0.0 | 0.00 | 0.00 | 0.00 | 91 | 1019.2 |
| 20260506114227 | 11 | 204 | 1.6 | 0.0 | 0.00 | 0.00 | 0.00 | 91 | 1019.4 |
| 20260506114027 | 11 | 202 | 6.4 | 0.0 | 0.00 | 0.00 | 0.00 | 91 | 1019.0 |
| 20260506113827 | 11 | 173 | 6.4 | 0.0 | 0.00 | 0.00 | 0.00 | 91 | 1019.2 |
| 20260506113437 | 11 | 131 | 1.6 | 0.0 | 0.00 | 0.00 | 0.00 | 92 | 1019.3 |
| 20260506113425 | 11 | 199 | 1.6 | 0.0 | 0.00 | 0.00 | 0.00 | 92 | 1019.4 |
| 20260506113037 | 11 | 249 | 1.6 | 0.0 | 0.00 | 0.00 | 0.00 | 92 | 1018.8 |
| 20260506113023 | 11 | 232 | 1.6 | 0.0 | 0.00 | 0.00 | 0.00 | 92 | 1019.2 |